CET,Max TemperatureF,Mean TemperatureF,Min TemperatureF,Max Dew PointF,MeanDew PointF,Min DewpointF,Max Humidity, Mean Humidity, Min Humidity, Max Sea Level PressureIn, Mean Sea Level PressureIn, Min Sea Level PressureIn, Max VisibilityMiles, Mean VisibilityMiles, Min VisibilityMiles, Max Wind SpeedMPH, Mean Wind SpeedMPH, Max Gust SpeedMPH,PrecipitationIn, CloudCover, Events, WindDirDegrees
2012-12-1,51,46,40,48,46,37,100,88,72,29.92,29.77,29.68,9,5,2,15,8,25,0.91,5,Rain,1
2012-12-2,57,48,40,45,38,34,93,67,39,30.24,30.15,29.95,12,6,6,9,4,,0.00,1,,289
2012-12-3,62,51,40,50,45,36,93,74,48,30.31,30.27,30.24,19,13,10,15,5,,0.00,,,223
2012-12-4,61,56,51,52,44,37,82,60,36,30.22,30.08,30.04,12,9,6,25,15,32,0.00,,,254
2012-12-5,59,56,54,47,39,34,67,51,38,30.06,30.02,29.98,12,8,6,22,13,31,0.00,1,,269
2012-12-6,60,51,42,43,41,33,93,63,30,30.13,30.10,30.06,19,7,6,14,7,,0.00,1,,283
2012-12-7,62,52,42,55,50,40,100,80,48,30.09,29.95,29.89,12,8,6,17,8,,0.00,1,,222
2012-12-8,60,53,44,52,40,36,87,57,37,30.21,30.07,29.92,19,7,6,21,9,31,0.00,1,,310
2012-12-9,61,50,40,48,42,37,100,77,48,30.30,30.26,30.21,12,8,6,8,1,,0.00,1,,180
2012-12-10,60,52,43,50,48,43,94,79,58,30.21,30.08,30.04,12,7,6,16,8,,0.00,1,,228
2012-12-11,58,53,48,54,50,43,94,87,70,30.10,30.08,30.06,12,6,6,14,7,,0.01,4,,358
2012-12-12,57,54,50,55,53,49,100,94,76,30.10,30.03,29.98,9,6,1,15,8,,0.12,6,Rain,32
2012-12-13,60,54,47,57,52,47,100,90,69,29.99,29.95,29.92,12,6,6,17,6,,0.00,2,,211
2012-12-14,62,59,56,59,56,53,94,88,67,29.98,29.96,29.95,12,7,6,17,15,,0.00,2,,208
2012-12-15,65,62,59,61,60,58,100,95,79,30.12,30.04,29.95,12,5,2,17,13,,0.02,2,Rain,215
2012-12-16,65,61,57,61,55,51,100,80,53,30.21,30.14,30.09,16,6,2,23,14,,0.02,1,Rain,235
2012-12-17,64,57,50,59,53,48,94,77,56,30.18,30.11,30.04,12,9,6,23,11,37,0.00,8,,255
2012-12-18,64,54,44,54,49,43,100,82,48,30.21,30.17,30.15,19,10,6,13,3,,0.00,1,,243
2012-12-19,64,55,46,57,53,45,100,92,69,30.18,30.14,30.09,19,8,5,13,3,,0.00,2,,199
2012-12-20,65,58,52,59,56,51,100,86,50,30.10,30.06,30.04,9,6,6,24,14,37,0.00,3,,222
2012-12-21,65,61,57,52,49,46,68,62,54,30.12,30.06,30.01,12,10,6,24,16,37,0.00,3,,254
2012-12-22,67,59,51,55,52,46,100,80,45,30.27,30.23,30.12,12,9,5,8,3,,0.00,,,189
2012-12-23,58,54,49,57,56,50,100,99,90,30.27,30.20,30.15,6,5,0,10,6,,0.00,8,Fog,207
2012-12-24,58,56,54,57,56,54,100,98,89,30.18,30.07,30.01,7,5,2,14,9,,0.00,8,,207
2012-12-25,60,56,51,57,56,52,100,96,84,30.01,29.93,29.86,6,4,1,22,6,,0.00,6,,214
2012-12-26,62,55,48,57,53,48,100,89,59,30.36,30.19,29.98,12,6,5,20,9,31,0.08,3,Rain,321
2012-12-27,61,54,48,55,51,48,100,88,61,30.42,30.37,30.33,16,8,6,12,7,,0.00,1,,223
2012-12-28,65,56,48,55,51,44,100,86,68,30.48,30.42,30.39,19,14,12,9,4,,0.00,,,270
2012-12-29,61,52,43,57,53,45,100,89,63,30.42,30.26,30.18,12,7,6,18,9,26,0.00,1,,211
2012-12-30,62,53,42,48,43,36,93,69,37,30.43,30.39,30.24,12,7,6,10,4,,0.00,1,,344
2012-12-31,60,50,41,54,49,40,100,86,60,30.42,30.28,30.12,12,7,6,16,4,,0.00,2,,191